Voltar ao catálogo

STARLINK-3446

AtivoComunicaçõesVLEO
NORAD 51747·PAYLOAD·🇺🇸 United States

Lançado Feb 21, 2022 de Cape Canaveral Space Force Station

Loading…

Próximas Passagens (próximas 24 horas)

TLE

AtualizadoSource: CelesTrak SupGP

Época: Sep 15, 2026, 01:19 UTC

1 51747C 22016AK  26258.05534722 -.00015293  00000+0 -49177-3 0  2586
2 51747  53.1588 176.1745 0001439  84.5726 358.5141 15.31709569    10

Acompanhe STARLINK-3446 em tempo real com AllMySat

Download on the App Store